Satellite: NOAA-12
Catalog number: 21263
Epoch time:      09308.90056491
Element set:    0331
Inclination:      098.7717 deg
RA of node:       317.0397 deg
Eccentricity:    0.0013398
Arg of perigee:   097.8813 deg
Mean anomaly:     262.3912 deg
Mean motion:   14.25599998 rev/day
Decay rate:        5.5e-07 rev/day^2
Epoch rev:           96044
Checksum:              337

Satellite: MET-3/5
Catalog number: 21655
Epoch time:      09308.91988928
Element set:    0751
Inclination:      082.5521 deg
RA of node:       107.0901 deg
Eccentricity:    0.0013451
Arg of perigee:   184.8189 deg
Mean anomaly:     175.2807 deg
Mean motion:   13.17021963 rev/day
Decay rate:        5.1e-07 rev/day^2
Epoch rev:           87615
Checksum:              315

Satellite: MET-2/21
Catalog number: 22782
Epoch time:      09308.75745443
Element set:    0610
Inclination:      082.5471 deg
RA of node:       070.4964 deg
Eccentricity:    0.0021309
Arg of perigee:   315.3435 deg
Mean anomaly:     044.6023 deg
Mean motion:   13.83640291 rev/day
Decay rate:        5.8e-07 rev/day^2
Epoch rev:           81704
Checksum:              288

Satellite: OKEAN-4
Catalog number: 23317
Epoch time:      09309.75149247
Element set:      64
Inclination:      082.5421 deg
RA of node:       202.3755 deg
Eccentricity:    0.0020442
Arg of perigee:   258.6921 deg
Mean anomaly:     101.2003 deg
Mean motion:   14.82735076 rev/day
Decay rate:       2.27e-06 rev/day^2
Epoch rev:           81334
Checksum:              271

Satellite: NOAA-14
Catalog number: 23455
Epoch time:      09308.93695085
Element set:    0817
Inclination:      098.8997 deg
RA of node:       026.0446 deg
Eccentricity:    0.0010030
Arg of perigee:   147.8358 deg
Mean anomaly:     212.3425 deg
Mean motion:   14.13770547 rev/day
Decay rate:      -1.83e-06 rev/day^2
Epoch rev:           76581
Checksum:              325

Satellite: NOAA-15
Catalog number: 25338
Epoch time:      09308.78615824
Element set:    0143
Inclination:      098.5979 deg
RA of node:       295.0109 deg
Eccentricity:    0.0010914
Arg of perigee:   013.8537 deg
Mean anomaly:     346.2930 deg
Mean motion:   14.24791366 rev/day
Decay rate:       1.31e-06 rev/day^2
Epoch rev:           59679
Checksum:              332

Satellite: RESURS
Catalog number: 25394
Epoch time:      09308.67144479
Element set:     349
Inclination:      098.3291 deg
RA of node:       333.7880 deg
Eccentricity:    0.0001668
Arg of perigee:   126.8068 deg
Mean anomaly:     233.3265 deg
Mean motion:   14.24189472 rev/day
Decay rate:       -6.0e-08 rev/day^2
Epoch rev:           58839
Checksum:              334

Satellite: FENGYUN1
Catalog number: 25730
Epoch time:      09309.77091059
Element set:     892
Inclination:      098.7682 deg
RA of node:       275.7768 deg
Eccentricity:    0.0021224
Arg of perigee:   171.5770 deg
Mean anomaly:     188.5765 deg
Mean motion:   14.08045878 rev/day
Decay rate:       6.96e-06 rev/day^2
Epoch rev:           54024
Checksum:              347

Satellite: OKEAN-0
Catalog number: 25860
Epoch time:      09308.86636712
Element set:    0829
Inclination:      097.8039 deg
RA of node:       284.5911 deg
Eccentricity:    0.0001834
Arg of perigee:   075.7919 deg
Mean anomaly:     284.3491 deg
Mean motion:   14.73595661 rev/day
Decay rate:        5.5e-07 rev/day^2
Epoch rev:           55386
Checksum:              345

Satellite: NOAA-16
Catalog number: 26536
Epoch time:      09308.82705919
Element set:    0623
Inclination:      099.1784 deg
RA of node:       315.9231 deg
Eccentricity:    0.0009834
Arg of perigee:   244.4102 deg
Mean anomaly:     115.6037 deg
Mean motion:   14.12535862 rev/day
Decay rate:      -2.51e-06 rev/day^2
Epoch rev:           47015
Checksum:              300

Satellite: NOAA-17
Catalog number: 27453
Epoch time:      09308.94305419
Element set:    0615
Inclination:      098.4666 deg
RA of node:       003.0377 deg
Eccentricity:    0.0012661
Arg of perigee:   075.3195 deg
Mean anomaly:     284.9354 deg
Mean motion:   14.24103461 rev/day
Decay rate:       -2.6e-07 rev/day^2
Epoch rev:           38278
Checksum:              310

Satellite: NOAA-18
Catalog number: 28654
Epoch time:      09308.91941522
Element set:    0103
Inclination:      098.9218 deg
RA of node:       251.1536 deg
Eccentricity:    0.0014022
Arg of perigee:   329.5415 deg
Mean anomaly:     030.4977 deg
Mean motion:   14.11298243 rev/day
Decay rate:       -7.0e-08 rev/day^2
Epoch rev:           22980
Checksum:              295

Satellite: NOAA-19
Catalog number: 33591
Epoch time:      09308.92971082
Element set:    0308
Inclination:      098.7618 deg
RA of node:       251.1201 deg
Eccentricity:    0.0013621
Arg of perigee:   201.3745 deg
Mean anomaly:     158.6876 deg
Mean motion:   14.10996777 rev/day
Decay rate:      -1.67e-06 rev/day^2
Epoch rev:           03828
Checksum:              324

/EX
SB KEPS @ AMSAT  $ORB09309.M
Orbital Elements  09309.MISC

HR AMSAT ORBITAL ELEMENTS FOR MANNED AND MISCELLANEOUS SATELLITES
FROM WA5QGD FORT WORTH,TX November 5, 2009
Send Subscribe/unsubscribe to KEPS at 
http://www.amsat.org/mailman/listinfo/keps
BID: ORB09309.M
TO ALL RADIO AMATEURS BT

Satellite: HUBBLE
Catalog number: 20580
Epoch time:      09308.22684229
Element set:     471
Inclination:      028.4701 deg
RA of node:       268.3012 deg
Eccentricity:    0.0003343
Arg of perigee:   334.3060 deg
Mean anomaly:     025.7370 deg
Mean motion:   15.00849904 rev/day
Decay rate:       4.45e-06 rev/day^2
Epoch rev:           87091
Checksum:              269

Satellite: ISS
Catalog number: 25544
Epoch time:      09309.86935794
Element set:     929
Inclination:      051.6431 deg
RA of node:       299.0934 deg
Eccentricity:    0.0006202
Arg of perigee:   298.6359 deg
Mean anomaly:     148.5370 deg
Mean motion:   15.75906518 rev/day
Decay rate:     1.8392e-04 rev/day^2
Epoch rev:           62827
Checksum:              350

Satellite: CO-58
Catalog number: 28895
Epoch time:      09308.71575238
Element set:     434
Inclination:      098.0391 deg
RA of node:       195.2387 deg
Eccentricity:    0.0016939
Arg of perigee:   268.6380 deg
Mean anomaly:     091.2903 deg
Mean motion:   14.59810807 rev/day
Decay rate:       1.79e-06 rev/day^2
Epoch rev:           21423
Checksum:              346

Satellite: FALCON
Catalog number: 30776
Epoch time:      09308.43292723
Element set:    0705
Inclination:      035.4346 deg
RA of node:       328.4563 deg
Eccentricity:    0.0001346
Arg of perigee:   021.9220 deg
Mean anomaly:     338.1554 deg
Mean motion:   15.03356710 rev/day
Decay rate:       6.30e-06 rev/day^2
Epoch rev:           14621
Checksum:              265

Satellite: MAST
Catalog number: 31126
Epoch time:      09308.60508827
Element set:     723
Inclination:      097.9709 deg
RA of node:       356.8499 deg
Eccentricity:    0.0094242
Arg of perigee:   203.4724 deg
Mean anomaly:     156.2146 deg
Mean motion:   14.53527321 rev/day
Decay rate:        6.3e-07 rev/day^2
Epoch rev:           13543
Checksum:              302

Satellite: CAPE1
Catalog number: 31130
Epoch time:      09308.64439262
Element set:     734
Inclination:      097.9731 deg
RA of node:       354.7623 deg
Eccentricity:    0.0101976
Arg of perigee:   209.9122 deg
Mean anomaly:     149.6221 deg
Mean motion:   14.52100354 rev/day
Decay rate:       1.36e-06 rev/day^2
Epoch rev:           13507
Checksum:              279

Satellite: COMPASS
Catalog number: 32787
Epoch time:      09308.23415640
Element set:    0510
Inclination:      097.9272 deg
RA of node:       010.7559 deg
Eccentricity:    0.0014947
Arg of perigee:   299.9351 deg
Mean anomaly:     060.0376 deg
Mean motion:   14.81685112 rev/day
Decay rate:       2.93e-06 rev/day^2
Epoch rev:           08218
Checksum:              305

Satellite: AAUSAT2
Catalog number: 32788
Epoch time:      09308.86551939
Element set:     503
Inclination:      097.9282 deg
RA of node:       011.4655 deg
Eccentricity:    0.0014452
Arg of perigee:   300.6704 deg
Mean anomaly:     059.3068 deg
Mean motion:   14.81811375 rev/day
Decay rate:        5.6e-07 rev/day^2
Epoch rev:            8228
Checksum:              310

Satellite: DO-64
Catalog number: 32789
Epoch time:      09308.75159620
Element set:     518
Inclination:      097.9322 deg
RA of node:       011.6099 deg
Eccentricity:    0.0014747
Arg of perigee:   297.0540 deg
Mean anomaly:     062.9167 deg
Mean motion:   14.81841415 rev/day
Decay rate:       7.15e-06 rev/day^2
Epoch rev:            8226
Checksum:              325

Satellite: CO-66
Catalog number: 32791
Epoch time:      09309.71194278
Element set:     499
Inclination:      097.9287 deg
RA of node:       012.2488 deg
Eccentricity:    0.0015308
Arg of perigee:   292.8585 deg
Mean anomaly:     067.0998 deg
Mean motion:   14.81503026 rev/day
Decay rate:       1.03e-06 rev/day^2
Epoch rev:            8236
Checksum:              341

Satellite: RS-30
Catalog number: 32953
Epoch time:      09308.72454195
Element set:     445
Inclination:      082.5034 deg
RA of node:       169.2441 deg
Eccentricity:    0.0018104
Arg of perigee:   232.2596 deg
Mean anomaly:     127.6842 deg
Mean motion:   12.43003129 rev/day
Decay rate:        1.0e-07 rev/day^2
Epoch rev:            6585
Checksum:              278

Satellite: TACSAT-3
Catalog number: 35001
Epoch time:      09308.88379814
Element set:    0145
Inclination:      040.4553 deg
RA of node:       118.9512 deg
Eccentricity:    0.0022195
Arg of perigee:   128.8611 deg
Mean anomaly:     231.4188 deg
Mean motion:   15.39478096 rev/day
Decay rate:      2.928e-05 rev/day^2
Epoch rev:           02603
Checksum:              304

